TimeMDT,TemperatureF,Dew PointF,Humidity,Sea Level PressureIn,VisibilityMPH,Wind Direction,Wind SpeedMPH,Gust SpeedMPH,PrecipitationIn,Events,Conditions,WindDirDegrees,DateUTC
12:53 AM,48.9,37.0,64,29.75,10.0,South,4.6,-,N/A,,Mostly Cloudy,190,2013-04-29 06:53:00
1:53 AM,45.0,36.0,71,29.73,10.0,South,4.6,-,N/A,,Clear,190,2013-04-29 07:53:00
2:53 AM,44.1,35.1,71,29.71,10.0,SSW,4.6,-,N/A,,Clear,200,2013-04-29 08:53:00
3:53 AM,44.1,34.0,68,29.69,10.0,Variable,3.5,-,N/A,,Clear,0,2013-04-29 09:53:00
4:53 AM,44.1,32.0,63,29.68,10.0,South,6.9,-,N/A,,Clear,180,2013-04-29 10:53:00
5:53 AM,41.0,34.0,76,29.68,10.0,Calm,Calm,-,N/A,,Clear,0,2013-04-29 11:53:00
6:53 AM,46.0,33.1,61,29.65,10.0,SE,10.4,-,N/A,,Clear,130,2013-04-29 12:53:00
7:53 AM,48.9,34.0,56,29.64,10.0,ESE,9.2,-,N/A,,Clear,120,2013-04-29 13:53:00
8:53 AM,55.0,32.0,42,29.62,10.0,ESE,5.8,-,N/A,,Clear,120,2013-04-29 14:53:00
9:53 AM,60.1,27.0,28,29.59,10.0,Calm,Calm,-,N/A,,Clear,0,2013-04-29 15:53:00
10:53 AM,63.0,27.0,26,29.55,10.0,West,4.6,-,N/A,,Clear,270,2013-04-29 16:53:00
11:53 AM,66.9,24.1,20,29.51,10.0,Calm,Calm,-,N/A,,Clear,0,2013-04-29 17:53:00
12:53 PM,69.1,23.0,18,29.47,10.0,Variable,4.6,-,N/A,,Clear,0,2013-04-29 18:53:00
1:53 PM,71.1,23.0,16,29.44,10.0,North,10.4,-,N/A,,Partly Cloudy,360,2013-04-29 19:53:00
2:53 PM,70.0,23.0,17,29.44,10.0,North,10.4,20.7,N/A,,Scattered Clouds,350,2013-04-29 20:53:00
3:53 PM,66.9,23.0,19,29.43,10.0,NW,8.1,-,N/A,,Partly Cloudy,320,2013-04-29 21:53:00
4:53 PM,66.9,25.0,21,29.42,10.0,NE,4.6,-,N/A,,Partly Cloudy,50,2013-04-29 22:53:00
5:30 PM,66.2,26.6,23,29.49,10.0,WSW,19.6,-,N/A,,Mostly Cloudy,250,2013-04-29 23:30:00
5:53 PM,66.9,24.1,20,29.42,10.0,West,16.1,28.8,N/A,,Partly Cloudy,260,2013-04-29 23:53:00
6:53 PM,64.0,26.1,24,29.43,10.0,Variable,4.6,-,N/A,,Partly Cloudy,0,2013-04-30 00:53:00
7:53 PM,52.0,34.0,50,29.51,10.0,North,18.4,26.5,N/A,,Clear,350,2013-04-30 01:53:00
8:53 PM,46.9,35.1,63,29.58,10.0,North,28.8,36.8,N/A,,Clear,350,2013-04-30 02:53:00
9:51 PM,44.6,35.6,71,29.67,10.0,North,12.7,26.5,N/A,,Mostly Cloudy,360,2013-04-30 03:51:00
9:53 PM,44.1,35.1,71,29.64,10.0,North,13.8,26.5,N/A,,Mostly Cloudy,350,2013-04-30 03:53:00
10:53 PM,44.1,35.1,71,29.67,10.0,NNW,10.4,-,N/A,,Overcast,340,2013-04-30 04:53:00
11:19 PM,42.8,35.6,76,29.74,6.0,North,19.6,26.5,0.00,Rain,Light Rain,350,2013-04-30 05:19:00
11:53 PM,41.0,37.0,86,29.70,5.0,Calm,Calm,-,0.04,Rain,Light Rain,0,2013-04-30 05:53:00